VLG9GZ LEBL-GCLP

Flight info

Callsign VLG9GZ
Flight time 7h 11m
Altitude 37000
Route LOTOS DCT TORDU DCT DIKUT DCT SOPET DCT VLC DCT SERRA DCT ASTRO DCT POBOS DCT XEBAR DCT YES DCT MAMIS DCT BAZAS DCT VIBAS DCT MGA DCT BRIKE DCT VJF L82 RUNAX UL82 IBALU UN857 TERTO
Aircraft A21N/M-SDE2E3FGHIRWXY/LB1

Departure

Time 2026-04-30 12:52
Airport Josep Tarradellas Barcelona-El Prat Airport (LEBL)

Arrival

Time 2026-04-30 20:03
Airport Gran Canaria Airport (GCLP)
Time Latitude Longitude Altitude Speed Heading
2026-04-30 12:00 41.29024 2.08052 22 ft 0 kts 336°
2026-04-30 12:36 41.29014 2.08058 24 ft 3 kts 331°
2026-04-30 12:36 41.28998 2.08073 24 ft 3 kts 316°
2026-04-30 12:36 41.28985 2.08093 25 ft 3 kts 298°
2026-04-30 12:36 41.28977 2.08117 23 ft 3 kts 277°
2026-04-30 12:37 41.28977 2.08143 22 ft 3 kts 257°
2026-04-30 12:37 41.28981 2.08163 22 ft 0 kts 245°
2026-04-30 12:44 41.28981 2.08160 22 ft 2 kts 245°
2026-04-30 12:44 41.28964 2.08112 23 ft 9 kts 245°
2026-04-30 12:45 41.28926 2.08002 23 ft 17 kts 245°
2026-04-30 12:45 41.28865 2.07865 22 ft 12 kts 210°
2026-04-30 12:45 41.28801 2.07876 21 ft 10 kts 160°
2026-04-30 12:45 41.28728 2.07918 22 ft 13 kts 156°
2026-04-30 12:46 41.28634 2.07970 20 ft 12 kts 167°
2026-04-30 12:46 41.28596 2.07946 19 ft 5 kts 246°
2026-04-30 12:46 41.28582 2.07903 21 ft 9 kts 243°
2026-04-30 12:46 41.28538 2.07781 19 ft 17 kts 245°
2026-04-30 12:47 41.28484 2.07627 19 ft 19 kts 244°
2026-04-30 12:47 41.28402 2.07552 20 ft 12 kts 200°
2026-04-30 12:47 41.28323 2.07500 21 ft 12 kts 225°
2026-04-30 12:47 41.28277 2.07426 20 ft 8 kts 200°
2026-04-30 12:48 41.28244 2.07444 22 ft 4 kts 116°
2026-04-30 12:48 41.28244 2.07472 22 ft 0 kts 69°
2026-04-30 12:51 41.28280 2.07594 25 ft 46 kts 66°
2026-04-30 12:51 41.28522 2.08306 25 ft 125 kts 65°
2026-04-30 12:52 41.28952 2.09521 408 ft 153 kts 63°
2026-04-30 12:52 41.29290 2.10757 1331 ft 148 kts 88°
2026-04-30 12:52 41.29182 2.12198 1993 ft 171 kts 97°
2026-04-30 12:52 41.28959 2.13932 2379 ft 205 kts 98°
2026-04-30 12:53 41.28739 2.15858 3288 ft 211 kts 97°
2026-04-30 12:53 41.28553 2.17768 4483 ft 206 kts 97°
2026-04-30 12:53 41.28389 2.19675 5492 ft 210 kts 97°
2026-04-30 12:53 41.28231 2.21651 6487 ft 220 kts 97°
2026-04-30 12:54 41.28073 2.23726 7444 ft 230 kts 98°
2026-04-30 12:54 41.27914 2.25877 8505 ft 236 kts 98°
2026-04-30 12:54 41.27754 2.28082 9590 ft 242 kts 97°
2026-04-30 12:54 41.27552 2.30320 10572 ft 246 kts 106°
2026-04-30 12:55 41.26979 2.32521 11308 ft 264 kts 116°
2026-04-30 12:55 41.26152 2.34883 11593 ft 300 kts 118°
2026-04-30 12:55 41.25169 2.37520 11840 ft 336 kts 118°
2026-04-30 12:55 41.24091 2.40416 12369 ft 358 kts 118°
2026-04-30 12:56 41.22992 2.43403 13469 ft 361 kts 118°
2026-04-30 12:56 41.21890 2.46414 14528 ft 365 kts 118°
2026-04-30 12:56 41.20768 2.49480 15431 ft 372 kts 118°
2026-04-30 12:56 41.19631 2.52593 16318 ft 379 kts 118°
2026-04-30 12:57 41.18466 2.55779 17196 ft 386 kts 118°
2026-04-30 12:57 41.17262 2.59001 18078 ft 393 kts 121°
2026-04-30 12:57 41.15734 2.62004 18860 ft 395 kts 134°
2026-04-30 12:57 41.13673 2.64400 19609 ft 394 kts 151°
2026-04-30 12:58 41.11200 2.65919 20377 ft 391 kts 168°
2026-04-30 12:58 41.08538 2.66452 21143 ft 387 kts 184°
2026-04-30 12:58 41.05849 2.66319 21928 ft 387 kts 189°
2026-04-30 12:58 41.03185 2.66017 22670 ft 391 kts 190°
2026-04-30 12:59 41.00469 2.65616 23413 ft 393 kts 194°
2026-04-30 12:59 40.97851 2.64620 24056 ft 390 kts 208°
2026-04-30 12:59 40.95571 2.62758 24673 ft 384 kts 224°
2026-04-30 12:59 40.93812 2.60134 25300 ft 381 kts 239°
2026-04-30 13:00 40.92669 2.56996 25910 ft 380 kts 251°
2026-04-30 13:00 40.91840 2.53663 26507 ft 382 kts 254°
2026-04-30 13:00 40.91078 2.50285 27108 ft 384 kts 254°
2026-04-30 13:00 40.90317 2.46895 27669 ft 386 kts 254°
2026-04-30 13:01 40.89541 2.43488 28215 ft 388 kts 254°
2026-04-30 13:01 40.88749 2.40057 28735 ft 391 kts 254°
2026-04-30 13:01 40.87948 2.36613 29190 ft 394 kts 253°
2026-04-30 13:01 40.87135 2.33140 29657 ft 397 kts 253°
2026-04-30 13:02 40.86313 2.29641 30126 ft 400 kts 253°
2026-04-30 13:02 40.85484 2.26121 30518 ft 402 kts 253°
2026-04-30 13:02 40.84648 2.22579 30917 ft 404 kts 253°
2026-04-30 13:02 40.83823 2.19092 31481 ft 401 kts 253°
2026-04-30 13:03 40.82996 2.15600 32101 ft 397 kts 253°
2026-04-30 13:03 40.82162 2.12087 32638 ft 395 kts 253°
2026-04-30 13:03 40.81340 2.08629 33105 ft 394 kts 253°
2026-04-30 13:03 40.80529 2.05221 33532 ft 394 kts 254°
2026-04-30 13:04 40.79707 2.01772 33979 ft 393 kts 254°
2026-04-30 13:04 40.78888 1.98340 34386 ft 392 kts 254°
2026-04-30 13:04 40.78067 1.94907 34763 ft 392 kts 254°
2026-04-30 13:04 40.77248 1.91486 35121 ft 391 kts 254°
2026-04-30 13:05 40.76428 1.88066 35451 ft 391 kts 253°
2026-04-30 13:05 40.75607 1.84645 35779 ft 391 kts 253°
2026-04-30 13:05 40.74781 1.81211 36123 ft 391 kts 253°
2026-04-30 13:06 40.73136 1.74384 36794 ft 390 kts 253°
2026-04-30 13:06 40.72313 1.70979 37053 ft 390 kts 253°
2026-04-30 13:06 40.71489 1.67570 37081 ft 389 kts 253°
2026-04-30 13:07 40.69840 1.60772 37086 ft 390 kts 253°
2026-04-30 13:07 40.68186 1.53968 37086 ft 390 kts 253°
2026-04-30 13:08 40.66527 1.47163 37083 ft 390 kts 253°
2026-04-30 13:08 40.64862 1.40355 37083 ft 390 kts 253°
2026-04-30 13:09 40.63196 1.33562 37087 ft 390 kts 253°
2026-04-30 13:09 40.61527 1.26774 37086 ft 390 kts 253°
2026-04-30 13:10 40.59851 1.19980 37086 ft 390 kts 253°
2026-04-30 13:10 40.58171 1.13190 37091 ft 390 kts 253°
2026-04-30 13:11 40.56498 1.06445 37087 ft 390 kts 253°
2026-04-30 13:11 40.54299 0.99910 37090 ft 393 kts 240°
2026-04-30 13:12 40.50883 0.94253 37086 ft 396 kts 232°
2026-04-30 13:12 40.47136 0.88920 37066 ft 397 kts 230°
2026-04-30 13:13 40.41447 0.80981 37084 ft 398 kts 230°
2026-04-30 13:14 40.35832 0.73042 37080 ft 398 kts 230°
2026-04-30 13:14 40.30193 0.65049 37081 ft 398 kts 230°
2026-04-30 13:15 40.24549 0.57070 37078 ft 398 kts 230°
2026-04-30 13:16 40.20779 0.51757 37084 ft 398 kts 229°
2026-04-30 13:16 40.17030 0.46484 37076 ft 398 kts 229°
2026-04-30 13:17 40.11363 0.38533 37090 ft 398 kts 229°
2026-04-30 13:18 40.05686 0.30585 37072 ft 399 kts 229°
2026-04-30 13:18 39.99997 0.22642 37070 ft 399 kts 229°
2026-04-30 13:19 39.96205 0.17353 37072 ft 399 kts 229°
2026-04-30 13:19 39.92412 0.12072 37076 ft 399 kts 229°
2026-04-30 13:20 39.88613 0.06790 37064 ft 399 kts 229°
2026-04-30 13:20 39.84813 0.01517 37068 ft 399 kts 229°
2026-04-30 13:21 39.81033 -0.03719 37068 ft 400 kts 228°
2026-04-30 13:22 39.75309 -0.11627 37057 ft 401 kts 228°
2026-04-30 13:22 39.69577 -0.19522 37055 ft 401 kts 228°
2026-04-30 13:23 39.63835 -0.27413 37051 ft 401 kts 227°
2026-04-30 13:24 39.56817 -0.37030 37043 ft 401 kts 227°
2026-04-30 13:25 39.49169 -0.47540 37047 ft 400 kts 230°
2026-04-30 13:26 39.40674 -0.61788 37047 ft 400 kts 233°
2026-04-30 13:28 39.32286 -0.76073 37046 ft 400 kts 233°
2026-04-30 13:28 39.27217 -0.84637 37046 ft 400 kts 232°
2026-04-30 13:29 39.20460 -0.96048 37042 ft 400 kts 232°
2026-04-30 13:31 39.11999 -1.10286 37044 ft 400 kts 232°
2026-04-30 13:32 39.03509 -1.24507 37046 ft 401 kts 232°
2026-04-30 13:33 38.96691 -1.35882 37048 ft 401 kts 232°
2026-04-30 13:34 38.91590 -1.44368 37056 ft 401 kts 232°
2026-04-30 13:35 38.84760 -1.55694 37060 ft 401 kts 231°
2026-04-30 13:36 38.77921 -1.66995 37059 ft 401 kts 231°
2026-04-30 13:36 38.73604 -1.74108 37050 ft 401 kts 231°
2026-04-30 13:37 38.70742 -1.78814 37061 ft 401 kts 231°
2026-04-30 13:38 38.65600 -1.87249 37067 ft 400 kts 231°
2026-04-30 13:39 38.58758 -1.98440 37056 ft 401 kts 231°
2026-04-30 13:40 38.53597 -2.06854 37052 ft 400 kts 230°
2026-04-30 13:40 38.50157 -2.12452 37060 ft 400 kts 231°
2026-04-30 13:41 38.46714 -2.18047 37059 ft 401 kts 230°
2026-04-30 13:41 38.43273 -2.23632 37067 ft 400 kts 230°
2026-04-30 13:42 38.39826 -2.29214 37090 ft 401 kts 230°
2026-04-30 13:42 38.34476 -2.37391 37058 ft 400 kts 226°
2026-04-30 13:43 38.30679 -2.42578 37061 ft 400 kts 225°
2026-04-30 13:43 38.26844 -2.47712 37068 ft 400 kts 225°
2026-04-30 13:44 38.23001 -2.52841 37068 ft 400 kts 225°
2026-04-30 13:44 38.19156 -2.57979 37062 ft 400 kts 225°
2026-04-30 13:45 38.13422 -2.65637 37069 ft 398 kts 225°
2026-04-30 13:46 38.09602 -2.70730 37051 ft 398 kts 225°
2026-04-30 13:46 38.05776 -2.75821 37055 ft 398 kts 225°
2026-04-30 13:47 38.01948 -2.80905 37066 ft 399 kts 225°
2026-04-30 13:47 37.98102 -2.86004 37059 ft 398 kts 225°
2026-04-30 13:48 37.94275 -2.91071 37036 ft 398 kts 225°
2026-04-30 13:48 37.90441 -2.96139 37045 ft 397 kts 225°
2026-04-30 13:49 37.86649 -3.01143 37038 ft 396 kts 225°
2026-04-30 13:49 37.82831 -3.06169 37041 ft 395 kts 225°
2026-04-30 13:50 37.79014 -3.11195 37037 ft 397 kts 225°
2026-04-30 13:50 37.73276 -3.18733 37036 ft 397 kts 225°
2026-04-30 13:51 37.69446 -3.23751 37035 ft 396 kts 225°
2026-04-30 13:51 37.65623 -3.28752 37049 ft 395 kts 225°
2026-04-30 13:52 37.61815 -3.33728 37030 ft 392 kts 225°
2026-04-30 13:52 37.58027 -3.38669 37034 ft 392 kts 225°
2026-04-30 13:53 37.54234 -3.43607 37045 ft 392 kts 225°
2026-04-30 13:53 37.50427 -3.48557 37034 ft 394 kts 225°
2026-04-30 13:54 37.46607 -3.53516 37034 ft 394 kts 225°
2026-04-30 13:54 37.42789 -3.58465 37036 ft 394 kts 225°
2026-04-30 13:55 37.38977 -3.63399 37050 ft 391 kts 225°
2026-04-30 13:55 37.35182 -3.68302 37033 ft 390 kts 225°
2026-04-30 13:56 37.31401 -3.73181 37030 ft 390 kts 225°
2026-04-30 13:56 37.27613 -3.78059 37030 ft 390 kts 225°
2026-04-30 13:57 37.23827 -3.82928 37060 ft 390 kts 225°
2026-04-30 13:57 37.20021 -3.87815 37049 ft 392 kts 225°
2026-04-30 13:58 37.14296 -3.95153 37047 ft 391 kts 225°
2026-04-30 13:59 37.10523 -3.99980 37044 ft 390 kts 224°
2026-04-30 13:59 37.06729 -4.04826 37049 ft 389 kts 224°
2026-04-30 14:00 37.02938 -4.09658 37036 ft 389 kts 225°
2026-04-30 14:00 36.97243 -4.16910 37042 ft 389 kts 224°
2026-04-30 14:01 36.93454 -4.21726 37038 ft 389 kts 224°
2026-04-30 14:01 36.89658 -4.26541 37045 ft 388 kts 224°
2026-04-30 14:02 36.85878 -4.31330 37030 ft 387 kts 225°
2026-04-30 14:02 36.82319 -4.36387 37050 ft 388 kts 233°
2026-04-30 14:03 36.79840 -4.42388 37043 ft 392 kts 244°
2026-04-30 14:03 36.77898 -4.48755 37056 ft 393 kts 247°
2026-04-30 14:04 36.76073 -4.55183 37052 ft 393 kts 247°
2026-04-30 14:04 36.74235 -4.61610 37047 ft 394 kts 247°
2026-04-30 14:05 36.72682 -4.66950 37042 ft 395 kts 246°
2026-04-30 14:05 36.70797 -4.73376 37031 ft 395 kts 246°
2026-04-30 14:06 36.67954 -4.83017 37030 ft 395 kts 246°
2026-04-30 14:07 36.65109 -4.92638 37041 ft 395 kts 246°
2026-04-30 14:08 36.62253 -5.02268 37041 ft 395 kts 246°
2026-04-30 14:08 36.59386 -5.11897 37039 ft 396 kts 246°
2026-04-30 14:09 36.57482 -5.18276 37049 ft 396 kts 246°
2026-04-30 14:10 36.54606 -5.27893 37050 ft 395 kts 246°
2026-04-30 14:10 36.52683 -5.34302 37061 ft 396 kts 246°
2026-04-30 14:11 36.50682 -5.40705 37055 ft 397 kts 242°
2026-04-30 14:11 36.48085 -5.46743 37047 ft 396 kts 238°
2026-04-30 14:12 36.45316 -5.52671 37053 ft 396 kts 237°
2026-04-30 14:12 36.42509 -5.58556 37060 ft 396 kts 237°
2026-04-30 14:13 36.39706 -5.64438 37051 ft 396 kts 237°
2026-04-30 14:13 36.36902 -5.70338 37049 ft 396 kts 237°
2026-04-30 14:14 36.34097 -5.76240 37053 ft 398 kts 238°
2026-04-30 14:14 36.31283 -5.82153 37059 ft 399 kts 238°
2026-04-30 14:15 36.28453 -5.88090 37063 ft 399 kts 237°
2026-04-30 14:15 36.25628 -5.94004 37060 ft 399 kts 237°
2026-04-30 14:16 36.22566 -5.99722 37066 ft 397 kts 232°
2026-04-30 14:16 36.19268 -6.05212 37066 ft 397 kts 231°
2026-04-30 14:17 36.15917 -6.10650 37079 ft 398 kts 231°
2026-04-30 14:17 36.12554 -6.16087 37075 ft 400 kts 231°
2026-04-30 14:18 36.09150 -6.21600 37082 ft 401 kts 231°
2026-04-30 14:18 36.04112 -6.29758 37080 ft 399 kts 231°
2026-04-30 14:19 35.99055 -6.37930 37080 ft 399 kts 231°
2026-04-30 14:20 35.95684 -6.43366 37080 ft 399 kts 231°
2026-04-30 14:20 35.90607 -6.51538 37081 ft 401 kts 231°
2026-04-30 14:21 35.87200 -6.57013 37081 ft 402 kts 231°
2026-04-30 14:22 35.82085 -6.65217 37082 ft 402 kts 231°
2026-04-30 14:22 35.76965 -6.73405 37083 ft 402 kts 231°
2026-04-30 14:23 35.70136 -6.84296 37095 ft 402 kts 231°
2026-04-30 14:24 35.65000 -6.92465 37089 ft 402 kts 232°
2026-04-30 14:25 35.58137 -7.03350 37092 ft 402 kts 232°
2026-04-30 14:26 35.52988 -7.11494 37090 ft 403 kts 232°
2026-04-30 14:27 35.47834 -7.19628 37094 ft 402 kts 232°
2026-04-30 14:27 35.44395 -7.25044 37093 ft 403 kts 232°
2026-04-30 14:28 35.39227 -7.33168 37094 ft 403 kts 232°
2026-04-30 14:28 35.35779 -7.38577 37094 ft 403 kts 232°
2026-04-30 14:29 35.29457 -7.48474 37092 ft 403 kts 232°
2026-04-30 14:31 35.20249 -7.62838 37095 ft 403 kts 232°
2026-04-30 14:31 35.15057 -7.70912 37094 ft 403 kts 232°
2026-04-30 14:32 35.09863 -7.78970 37092 ft 402 kts 232°
2026-04-30 14:33 35.06395 -7.84340 37095 ft 402 kts 232°
2026-04-30 14:33 35.01195 -7.92376 37094 ft 402 kts 232°
2026-04-30 14:34 34.97722 -7.97734 37085 ft 402 kts 232°
2026-04-30 14:34 34.94248 -8.03084 37091 ft 402 kts 232°
2026-04-30 14:35 34.89029 -8.11107 37097 ft 402 kts 232°
2026-04-30 14:36 34.85547 -8.16450 37094 ft 402 kts 232°
2026-04-30 14:36 34.82065 -8.21784 37095 ft 402 kts 232°
2026-04-30 14:37 34.78581 -8.27113 37098 ft 402 kts 232°
2026-04-30 14:37 34.75092 -8.32442 37092 ft 402 kts 232°
2026-04-30 14:38 34.71608 -8.37757 37094 ft 402 kts 232°
2026-04-30 14:38 34.68118 -8.43071 37094 ft 402 kts 232°
2026-04-30 14:39 34.64624 -8.48384 37098 ft 402 kts 232°
2026-04-30 14:39 34.61130 -8.53688 37097 ft 402 kts 232°
2026-04-30 14:40 34.55880 -8.61643 37094 ft 402 kts 232°
2026-04-30 14:40 34.52379 -8.66939 37095 ft 402 kts 232°
2026-04-30 14:41 34.48896 -8.72199 37099 ft 402 kts 232°
2026-04-30 14:41 34.45361 -8.77450 37096 ft 402 kts 229°
2026-04-30 14:42 34.41225 -8.82023 37080 ft 404 kts 222°
2026-04-30 14:42 34.36849 -8.86308 37094 ft 405 kts 220°
2026-04-30 14:43 34.32419 -8.90522 37097 ft 405 kts 220°
2026-04-30 14:43 34.27993 -8.94733 37097 ft 405 kts 220°
2026-04-30 14:44 34.23576 -8.98952 37094 ft 405 kts 220°
2026-04-30 14:44 34.19879 -9.02489 37094 ft 405 kts 220°
2026-04-30 14:45 34.15497 -9.06678 37097 ft 404 kts 220°
2026-04-30 14:45 34.11072 -9.10899 37095 ft 406 kts 222°
2026-04-30 14:46 34.06620 -9.15144 37100 ft 408 kts 222°
2026-04-30 14:46 34.02160 -9.19388 37096 ft 409 kts 222°
2026-04-30 14:47 33.97683 -9.23642 37097 ft 409 kts 222°
2026-04-30 14:47 33.93216 -9.27880 37099 ft 409 kts 222°
2026-04-30 14:48 33.88749 -9.32114 37100 ft 409 kts 222°
2026-04-30 14:48 33.84274 -9.36349 37095 ft 409 kts 222°
2026-04-30 14:49 33.79794 -9.40583 37099 ft 410 kts 222°
2026-04-30 14:49 33.75303 -9.44822 37096 ft 410 kts 222°
2026-04-30 14:50 33.68534 -9.51200 37097 ft 415 kts 224°
2026-04-30 14:51 33.61729 -9.57599 37097 ft 416 kts 224°
2026-04-30 14:52 33.54881 -9.64021 37092 ft 417 kts 225°
2026-04-30 14:52 33.47987 -9.70477 37099 ft 418 kts 225°
2026-04-30 14:53 33.41141 -9.76872 37095 ft 418 kts 225°
2026-04-30 14:54 33.31969 -9.85422 37094 ft 418 kts 225°
2026-04-30 14:55 33.25069 -9.91839 37099 ft 419 kts 225°
2026-04-30 14:56 33.15853 -10.00389 37103 ft 419 kts 225°
2026-04-30 14:57 33.08936 -10.06790 37097 ft 419 kts 225°
2026-04-30 14:58 32.99702 -10.15314 37102 ft 419 kts 225°
2026-04-30 14:58 32.92774 -10.21686 37091 ft 420 kts 225°
2026-04-30 15:00 32.81238 -10.32268 37104 ft 418 kts 225°
2026-04-30 15:01 32.72010 -10.40708 37081 ft 418 kts 225°
2026-04-30 15:01 32.65085 -10.47025 37100 ft 418 kts 225°
2026-04-30 15:02 32.60470 -10.51228 37099 ft 418 kts 225°
2026-04-30 15:03 32.48935 -10.61709 37103 ft 416 kts 225°
2026-04-30 15:04 32.46676 -10.63758 37102 ft 416 kts 225°
2026-04-30 15:19 32.40295 -10.69537 37098 ft 414 kts 225°
2026-04-30 17:39 38.08518 -2.72171 37079 ft 393 kts 225°
2026-04-30 17:42 37.89614 -2.97231 37064 ft 394 kts 225°
2026-04-30 17:43 37.80117 -3.09745 37059 ft 394 kts 225°
2026-04-30 17:44 37.68718 -3.24704 37057 ft 394 kts 225°
2026-04-30 17:47 37.51647 -3.46971 37063 ft 393 kts 225°
2026-04-30 17:48 37.38316 -3.64252 37062 ft 394 kts 224°
2026-04-30 17:50 37.23015 -3.83970 37077 ft 395 kts 225°
2026-04-30 17:52 37.11411 -3.98843 37069 ft 397 kts 224°
2026-04-30 17:54 36.94009 -4.21018 37036 ft 397 kts 224°
2026-04-30 17:56 36.79930 -4.42092 37020 ft 402 kts 245°
2026-04-30 17:58 36.74175 -4.61819 37018 ft 403 kts 248°
2026-04-30 18:00 36.66475 -4.88016 37031 ft 403 kts 247°
2026-04-30 18:01 36.61616 -5.04408 37038 ft 404 kts 248°
2026-04-30 18:02 36.55738 -5.24107 37036 ft 404 kts 248°
2026-04-30 18:04 36.49504 -5.43564 37042 ft 404 kts 240°
2026-04-30 18:06 36.38152 -5.67704 37047 ft 404 kts 238°
2026-04-30 18:08 36.28137 -5.88749 37060 ft 406 kts 239°
2026-04-30 18:10 36.15308 -6.11627 37077 ft 405 kts 232°
2026-04-30 18:11 36.03320 -6.31036 37081 ft 405 kts 233°
2026-04-30 18:13 35.94746 -6.44875 37085 ft 405 kts 233°
2026-04-30 18:14 35.86196 -6.58625 37083 ft 405 kts 233°
2026-04-30 18:15 35.75641 -6.74875 37089 ft 405 kts 226°
2026-04-30 18:16 35.67460 -6.84443 37093 ft 406 kts 225°
2026-04-30 18:17 35.63336 -6.89203 37089 ft 406 kts 225°
2026-04-30 18:18 35.57138 -6.96336 37090 ft 407 kts 225°
2026-04-30 18:18 35.53026 -7.01060 37095 ft 407 kts 226°
2026-04-30 18:19 35.48883 -7.05814 37096 ft 408 kts 226°
2026-04-30 18:19 35.44739 -7.10561 37097 ft 408 kts 226°
2026-04-30 18:20 35.40590 -7.15307 37097 ft 408 kts 226°
2026-04-30 18:20 35.37109 -7.19283 37097 ft 408 kts 226°
2026-04-30 18:21 35.32957 -7.24020 37101 ft 409 kts 227°
2026-04-30 18:21 35.28814 -7.28739 37097 ft 410 kts 227°
2026-04-30 18:22 35.24632 -7.33494 37105 ft 410 kts 227°
2026-04-30 18:22 35.18344 -7.40633 37102 ft 411 kts 227°
2026-04-30 18:23 35.14151 -7.45384 37103 ft 411 kts 227°
2026-04-30 18:23 35.09958 -7.50129 37098 ft 411 kts 227°
2026-04-30 18:24 35.03670 -7.57230 37099 ft 411 kts 227°
2026-04-30 18:25 34.99492 -7.61939 37089 ft 411 kts 229°
2026-04-30 18:25 34.93183 -7.69040 37101 ft 412 kts 229°
2026-04-30 18:26 34.86859 -7.76140 37102 ft 412 kts 229°
2026-04-30 18:27 34.80532 -7.83228 37102 ft 412 kts 229°
2026-04-30 18:28 34.74200 -7.90308 37103 ft 412 kts 229°
2026-04-30 18:28 34.67893 -7.97343 37094 ft 412 kts 229°
2026-04-30 18:29 34.59434 -8.06756 37095 ft 412 kts 229°
2026-04-30 18:30 34.50972 -8.16145 37103 ft 412 kts 229°
2026-04-30 18:31 34.44627 -8.23166 37098 ft 412 kts 229°
2026-04-30 18:32 34.38301 -8.30152 37102 ft 411 kts 229°
2026-04-30 18:33 34.31953 -8.37148 37110 ft 411 kts 229°
2026-04-30 18:33 34.25615 -8.44117 37108 ft 410 kts 229°
2026-04-30 18:34 34.19275 -8.51074 37109 ft 410 kts 229°
2026-04-30 18:35 34.15050 -8.55702 37110 ft 411 kts 229°
2026-04-30 18:35 34.10815 -8.60334 37111 ft 411 kts 229°
2026-04-30 18:36 34.04457 -8.67276 37110 ft 411 kts 229°
2026-04-30 18:37 33.98095 -8.74208 37106 ft 410 kts 229°
2026-04-30 18:37 33.93893 -8.78777 37112 ft 409 kts 229°
2026-04-30 18:38 33.89680 -8.83354 37085 ft 409 kts 229°
2026-04-30 18:38 33.85446 -8.87946 37115 ft 409 kts 229°
2026-04-30 18:39 33.81221 -8.92523 37115 ft 409 kts 229°
2026-04-30 18:39 33.76993 -8.97096 37116 ft 409 kts 229°
2026-04-30 18:40 33.72763 -9.01664 37119 ft 409 kts 229°
2026-04-30 18:40 33.68536 -9.06225 37103 ft 408 kts 229°
2026-04-30 18:41 33.64331 -9.10753 37108 ft 408 kts 229°
2026-04-30 18:41 33.60117 -9.15285 37100 ft 406 kts 229°
2026-04-30 18:42 33.55911 -9.19804 37113 ft 406 kts 229°
2026-04-30 18:42 33.49595 -9.26578 37112 ft 406 kts 229°
2026-04-30 18:45 33.26394 -9.51340 37113 ft 407 kts 229°
2026-04-30 18:46 33.22164 -9.55835 37117 ft 407 kts 229°
2026-04-30 18:46 33.17957 -9.60299 37115 ft 407 kts 229°
2026-04-30 18:47 33.13724 -9.64785 37114 ft 407 kts 229°
2026-04-30 18:47 33.09492 -9.69264 37115 ft 407 kts 229°
2026-04-30 18:48 33.05252 -9.73745 37119 ft 407 kts 229°
2026-04-30 18:48 33.01011 -9.78222 37119 ft 407 kts 229°
2026-04-30 18:49 32.96773 -9.82689 37116 ft 407 kts 229°
2026-04-30 18:49 32.92529 -9.87155 37120 ft 406 kts 230°
2026-04-30 18:50 32.88290 -9.91612 37121 ft 406 kts 230°
2026-04-30 18:50 32.84054 -9.96060 37118 ft 406 kts 230°
2026-04-30 18:51 32.79815 -10.00505 37118 ft 406 kts 230°
2026-04-30 18:51 32.75590 -10.04929 37118 ft 406 kts 230°
2026-04-30 18:52 32.71340 -10.09374 37118 ft 407 kts 230°
2026-04-30 18:52 32.67077 -10.13826 37121 ft 408 kts 230°
2026-04-30 18:53 32.62818 -10.18268 37119 ft 408 kts 230°
2026-04-30 18:53 32.58555 -10.22707 37119 ft 406 kts 230°
2026-04-30 18:54 32.54325 -10.27106 37120 ft 404 kts 230°
2026-04-30 18:54 32.50099 -10.31496 37125 ft 403 kts 230°
2026-04-30 18:55 32.45876 -10.35879 37090 ft 403 kts 230°
2026-04-30 18:55 32.39523 -10.42461 37121 ft 405 kts 230°
2026-04-30 18:56 32.33183 -10.49015 37127 ft 405 kts 230°
2026-04-30 18:57 32.26809 -10.55591 37124 ft 405 kts 230°
2026-04-30 18:57 32.22563 -10.59964 37125 ft 403 kts 230°
2026-04-30 18:58 32.16233 -10.66475 37109 ft 402 kts 230°
2026-04-30 18:59 32.09911 -10.72968 37126 ft 404 kts 230°
2026-04-30 19:00 32.02114 -10.80953 37121 ft 404 kts 230°
2026-04-30 19:01 31.93652 -10.89600 37125 ft 404 kts 229°
2026-04-30 19:02 31.87284 -10.96093 37114 ft 403 kts 229°
2026-04-30 19:03 31.78803 -11.04720 37134 ft 403 kts 229°
2026-04-30 19:04 31.70318 -11.13331 37131 ft 403 kts 229°
2026-04-30 19:05 31.61827 -11.21925 37132 ft 403 kts 229°
2026-04-30 19:06 31.53338 -11.30497 37126 ft 403 kts 229°
2026-04-30 19:06 31.46975 -11.36906 37130 ft 401 kts 229°
2026-04-30 19:07 31.40634 -11.43284 37134 ft 400 kts 229°
2026-04-30 19:08 31.32172 -11.51776 37131 ft 400 kts 228°
2026-04-30 19:09 31.25824 -11.58132 37134 ft 401 kts 228°
2026-04-30 19:09 31.21612 -11.62344 37134 ft 401 kts 228°
2026-04-30 19:10 31.13137 -11.70801 37134 ft 401 kts 228°
2026-04-30 19:11 31.06776 -11.77135 37133 ft 401 kts 228°
2026-04-30 19:12 31.02538 -11.81350 37138 ft 401 kts 228°
2026-04-30 19:12 30.98296 -11.85563 37130 ft 400 kts 228°
2026-04-30 19:13 30.89787 -11.93998 37137 ft 402 kts 228°
2026-04-30 19:14 30.85529 -11.98212 37136 ft 402 kts 228°
2026-04-30 19:14 30.81259 -12.02430 37135 ft 402 kts 228°
2026-04-30 19:15 30.77001 -12.06635 37134 ft 401 kts 227°
2026-04-30 19:15 30.70650 -12.12894 37137 ft 401 kts 227°
2026-04-30 19:16 30.66368 -12.17108 37116 ft 401 kts 227°
2026-04-30 19:17 30.60005 -12.23361 37136 ft 402 kts 227°
2026-04-30 19:17 30.53586 -12.29657 37138 ft 402 kts 227°
2026-04-30 19:18 30.47181 -12.35929 37143 ft 402 kts 227°
2026-04-30 19:19 30.42902 -12.40113 37141 ft 402 kts 227°
2026-04-30 19:19 30.36506 -12.46357 37141 ft 400 kts 227°
2026-04-30 19:20 30.32246 -12.50511 37140 ft 401 kts 226°
2026-04-30 19:21 30.25872 -12.56715 37139 ft 401 kts 226°
2026-04-30 19:22 30.17309 -12.65033 37144 ft 401 kts 226°
2026-04-30 19:23 30.04195 -12.77051 37143 ft 403 kts 223°
2026-04-30 19:24 29.97434 -12.82810 37144 ft 402 kts 223°
2026-04-30 19:25 29.86172 -12.92402 37140 ft 402 kts 223°
2026-04-30 19:26 29.77161 -13.00057 37139 ft 402 kts 223°
2026-04-30 19:27 29.70394 -13.05797 37143 ft 403 kts 223°
2026-04-30 19:28 29.63606 -13.11542 37139 ft 404 kts 223°
2026-04-30 19:29 29.54591 -13.19157 37144 ft 403 kts 223°
2026-04-30 19:30 29.45570 -13.26761 36848 ft 402 kts 223°
2026-04-30 19:30 29.41044 -13.30571 36308 ft 403 kts 223°
2026-04-30 19:31 29.36511 -13.34380 35819 ft 404 kts 223°
2026-04-30 19:31 29.34237 -13.36291 35572 ft 404 kts 223°
2026-04-30 19:31 29.29724 -13.40077 35078 ft 405 kts 223°
2026-04-30 19:32 29.27452 -13.41982 34843 ft 405 kts 223°
2026-04-30 19:32 29.25174 -13.43891 34599 ft 405 kts 223°
2026-04-30 19:32 29.22897 -13.45798 34359 ft 406 kts 223°
2026-04-30 19:32 29.20616 -13.47706 34125 ft 405 kts 223°
2026-04-30 19:33 29.18337 -13.49614 33848 ft 406 kts 223°
2026-04-30 19:33 29.16180 -13.51657 33585 ft 400 kts 229°
2026-04-30 19:33 29.14232 -13.53910 33318 ft 397 kts 232°
2026-04-30 19:33 29.12334 -13.56216 33038 ft 398 kts 232°
2026-04-30 19:34 29.10445 -13.58527 32777 ft 398 kts 232°
2026-04-30 19:34 29.08550 -13.60843 32519 ft 399 kts 232°
2026-04-30 19:34 29.04746 -13.65472 32014 ft 400 kts 232°
2026-04-30 19:35 29.02841 -13.67786 31768 ft 400 kts 231°
2026-04-30 19:35 29.00938 -13.70093 31523 ft 398 kts 231°
2026-04-30 19:35 28.99040 -13.72392 31286 ft 397 kts 231°
2026-04-30 19:35 28.97152 -13.74679 31042 ft 395 kts 231°
2026-04-30 19:36 28.95269 -13.76958 30791 ft 393 kts 231°
2026-04-30 19:36 28.93393 -13.79227 30566 ft 392 kts 231°
2026-04-30 19:36 28.89694 -13.83698 30082 ft 388 kts 231°
2026-04-30 19:37 28.87845 -13.85931 29807 ft 387 kts 231°
2026-04-30 19:37 28.86002 -13.88157 29536 ft 385 kts 231°
2026-04-30 19:37 28.84166 -13.90372 29266 ft 383 kts 231°
2026-04-30 19:37 28.82334 -13.92581 28997 ft 382 kts 231°
2026-04-30 19:38 28.80511 -13.94778 28721 ft 381 kts 231°
2026-04-30 19:38 28.78687 -13.96975 28455 ft 381 kts 231°
2026-04-30 19:38 28.76866 -13.99168 28200 ft 380 kts 231°
2026-04-30 19:38 28.75054 -14.01347 27939 ft 372 kts 231°
2026-04-30 19:39 28.73300 -14.03451 27545 ft 362 kts 231°
2026-04-30 19:39 28.71584 -14.05511 27082 ft 354 kts 231°
2026-04-30 19:39 28.69905 -14.07527 26637 ft 348 kts 231°
2026-04-30 19:39 28.68246 -14.09520 26195 ft 346 kts 231°
2026-04-30 19:40 28.66612 -14.11485 25754 ft 346 kts 231°
2026-04-30 19:40 28.64939 -14.13494 25315 ft 345 kts 231°
2026-04-30 19:40 28.63310 -14.15448 24864 ft 344 kts 231°
2026-04-30 19:40 28.61667 -14.17417 24441 ft 342 kts 231°
2026-04-30 19:41 28.60025 -14.19383 24000 ft 341 kts 231°
2026-04-30 19:41 28.58393 -14.21337 23521 ft 340 kts 231°
2026-04-30 19:41 28.56769 -14.23281 23048 ft 338 kts 231°
2026-04-30 19:41 28.55147 -14.25221 22578 ft 336 kts 230°
2026-04-30 19:42 28.54061 -14.26519 22271 ft 335 kts 230°
2026-04-30 19:42 28.52461 -14.28432 21823 ft 333 kts 230°
2026-04-30 19:42 28.50869 -14.30333 21388 ft 331 kts 230°
2026-04-30 19:42 28.49286 -14.32223 20958 ft 329 kts 230°
2026-04-30 19:43 28.47712 -14.34102 20515 ft 328 kts 230°
2026-04-30 19:43 28.46142 -14.35975 20098 ft 327 kts 230°
2026-04-30 19:43 28.44597 -14.37817 19667 ft 325 kts 230°
2026-04-30 19:44 28.41493 -14.41515 18794 ft 322 kts 230°
2026-04-30 19:44 28.39951 -14.43351 18350 ft 320 kts 230°
2026-04-30 19:44 28.38419 -14.45175 17875 ft 318 kts 230°
2026-04-30 19:44 28.36875 -14.47011 17444 ft 316 kts 230°
2026-04-30 19:45 28.35379 -14.48790 17023 ft 315 kts 229°
2026-04-30 19:45 28.33869 -14.50585 16601 ft 313 kts 229°
2026-04-30 19:45 28.32366 -14.52371 16181 ft 311 kts 229°
2026-04-30 19:45 28.30878 -14.54138 15768 ft 309 kts 229°
2026-04-30 19:46 28.29396 -14.55898 15352 ft 308 kts 229°
2026-04-30 19:46 28.27916 -14.57653 14933 ft 306 kts 229°
2026-04-30 19:46 28.26452 -14.59390 14529 ft 304 kts 229°
2026-04-30 19:46 28.24994 -14.61118 14125 ft 302 kts 228°
2026-04-30 19:47 28.23545 -14.62836 13705 ft 300 kts 228°
2026-04-30 19:47 28.22590 -14.63967 13434 ft 299 kts 228°
2026-04-30 19:47 28.20669 -14.66239 12897 ft 297 kts 228°
2026-04-30 19:47 28.19242 -14.67925 12493 ft 296 kts 228°
2026-04-30 19:48 28.17820 -14.69604 12097 ft 294 kts 227°
2026-04-30 19:48 28.16408 -14.71270 11712 ft 292 kts 227°
2026-04-30 19:48 28.15003 -14.72927 11340 ft 291 kts 227°
2026-04-30 19:48 28.13604 -14.74577 10985 ft 288 kts 227°
2026-04-30 19:49 28.12258 -14.76162 10880 ft 271 kts 227°
2026-04-30 19:49 28.09719 -14.79152 10378 ft 260 kts 227°
2026-04-30 19:49 28.08465 -14.80630 10062 ft 260 kts 227°
2026-04-30 19:50 28.07213 -14.82104 9739 ft 259 kts 227°
2026-04-30 19:50 28.05975 -14.83560 9447 ft 259 kts 227°
2026-04-30 19:50 28.04730 -14.85025 9140 ft 258 kts 227°
2026-04-30 19:50 28.03483 -14.86491 8851 ft 258 kts 227°
2026-04-30 19:51 28.02243 -14.87948 8558 ft 257 kts 227°
2026-04-30 19:51 28.01001 -14.89407 8266 ft 257 kts 227°
2026-04-30 19:51 27.99765 -14.90858 7978 ft 256 kts 227°
2026-04-30 19:51 27.98532 -14.92305 7735 ft 250 kts 227°
2026-04-30 19:52 27.97364 -14.93675 7669 ft 234 kts 227°
2026-04-30 19:52 27.96260 -14.94971 7546 ft 225 kts 226°
2026-04-30 19:52 27.95182 -14.96235 7300 ft 222 kts 226°
2026-04-30 19:52 27.94122 -14.97570 6973 ft 235 kts 235°
2026-04-30 19:53 27.93468 -14.99267 6615 ft 239 kts 261°
2026-04-30 19:53 27.93643 -15.01117 6240 ft 240 kts 291°
2026-04-30 19:53 27.94458 -15.02757 5872 ft 240 kts 303°
2026-04-30 19:53 27.95418 -15.04299 5505 ft 240 kts 305°
2026-04-30 19:54 27.96391 -15.05825 5133 ft 238 kts 306°
2026-04-30 19:54 27.97342 -15.07331 4768 ft 236 kts 306°
2026-04-30 19:54 27.98258 -15.08795 4401 ft 234 kts 305°
2026-04-30 19:54 27.99201 -15.10303 4026 ft 232 kts 305°
2026-04-30 19:55 27.99895 -15.11923 3651 ft 230 kts 281°
2026-04-30 19:55 27.99771 -15.13681 3292 ft 229 kts 250°
2026-04-30 19:55 27.98929 -15.15203 3108 ft 230 kts 230°
2026-04-30 19:55 27.97834 -15.16533 3012 ft 232 kts 227°
2026-04-30 19:56 27.96700 -15.17837 3000 ft 232 kts 226°
2026-04-30 19:56 27.95560 -15.19136 3002 ft 233 kts 227°
2026-04-30 19:56 27.94359 -15.20503 2993 ft 252 kts 226°
2026-04-30 19:56 27.93138 -15.21892 2993 ft 245 kts 226°
2026-04-30 19:57 27.91946 -15.23206 3003 ft 240 kts 224°
2026-04-30 19:57 27.90705 -15.24459 2999 ft 238 kts 223°
2026-04-30 19:57 27.89465 -15.25692 2995 ft 238 kts 222°
2026-04-30 19:57 27.88222 -15.26921 2993 ft 238 kts 223°
2026-04-30 19:58 27.86973 -15.28151 2997 ft 238 kts 222°
2026-04-30 19:58 27.85722 -15.29386 2992 ft 238 kts 222°
2026-04-30 19:58 27.84481 -15.30615 2888 ft 235 kts 222°
2026-04-30 19:58 27.83263 -15.31826 2790 ft 233 kts 222°
2026-04-30 19:59 27.82049 -15.33033 2701 ft 233 kts 222°
2026-04-30 19:59 27.80949 -15.34351 2588 ft 231 kts 240°
2026-04-30 19:59 27.80226 -15.37790 2393 ft 227 kts 273°
2026-04-30 20:00 27.80335 -15.39568 2294 ft 227 kts 276°
2026-04-30 20:00 27.80559 -15.41332 2178 ft 227 kts 292°
2026-04-30 20:00 27.81541 -15.42656 2139 ft 222 kts 331°
2026-04-30 20:00 27.82973 -15.42994 1961 ft 206 kts
2026-04-30 20:01 27.85552 -15.42025 1433 ft 187 kts 23°
2026-04-30 20:01 27.86711 -15.41531 1186 ft 170 kts 20°
2026-04-30 20:01 27.87780 -15.41058 974 ft 159 kts 23°
2026-04-30 20:02 27.89635 -15.40235 620 ft 131 kts 23°
2026-04-30 20:02 27.90474 -15.39856 414 ft 128 kts 25°
2026-04-30 20:03 27.92140 -15.39118 99 ft 125 kts 22°
2026-04-30 20:03 27.92856 -15.38799 64 ft 88 kts 21°
2026-04-30 20:03 27.93255 -15.38626 60 ft 34 kts 20°
2026-04-30 20:03 27.93438 -15.38550 57 ft 27 kts 20°
2026-04-30 20:04 27.93626 -15.38470 61 ft 30 kts 21°
2026-04-30 20:04 27.93792 -15.38425 63 ft 11 kts
2026-04-30 20:04 27.93832 -15.38426 66 ft 6 kts 358°
2026-04-30 20:05 27.93930 -15.38440 71 ft 12 kts 351°
2026-04-30 20:05 27.94014 -15.38460 73 ft 10 kts 334°
2026-04-30 20:05 27.94068 -15.38553 78 ft 13 kts 289°
2026-04-30 20:06 27.94033 -15.38643 88 ft 16 kts 208°
2026-04-30 20:06 27.93925 -15.38692 90 ft 18 kts 201°
2026-04-30 20:06 27.93879 -15.38723 87 ft 3 kts 246°
2026-04-30 20:06 27.93880 -15.38742 89 ft 4 kts 278°
2026-04-30 20:07 27.93889 -15.38773 81 ft 3 kts 289°
2026-04-30 20:07 27.93894 -15.38789 95 ft 3 kts 289°
2026-04-30 20:07 27.93899 -15.38803 95 ft 0 kts 291°